Location: Zaragoza
(41.6330°N, 0.8830°W)
Time: 00:46:37
(UTC+02:00)

ISS - Visible Passes

Search period start: 22 October 2018 00:00
Search period end: 31 October 2018 23:00
Orbit: 402 x 408 km, 51.6° (Epoch: 22 October)

Date Brightness Start Highest point End Pass type
(mag) Time Alt. Az. Time Alt. Az. Time Alt. Az.
25 Oct -1.6 07:54:40 10° SSW 07:57:31 28° SE 08:00:23 10° ENE visible
26 Oct -0.9 07:03:43 10° SSE 07:05:41 15° SE 07:07:40 10° E visible
27 Oct -3.5 07:46:34 10° SW 07:49:49 70° SE 07:53:05 10° ENE visible
28 Oct -2.4 05:55:59 19° SSW 05:57:51 35° SE 06:00:54 10° ENE visible
29 Oct -1.0 05:06:47 17° ESE 05:06:47 17° ESE 05:08:22 10° E visible
29 Oct -3.6 06:39:30 13° WSW 06:42:12 51° NNW 06:45:26 10° NE visible
30 Oct -4.0 05:50:05 88° SSW 05:50:07 89° SE 05:53:25 10° NE visible
31 Oct -0.7 05:00:31 15° ENE 05:00:31 15° ENE 05:01:15 10° ENE visible
31 Oct -2.6 06:33:12 19° WNW 06:34:42 28° NNW 06:37:35 10° NE visible
